Location: Vancouver
(49.2500°N, 123.1330°W)
Time: 21:53:48
(UTC-07:00)

Daily predictions for brighter satellites

Satellite Brightness Start Highest point End
(mag) Time Altitude Azimuth Time Altitude Azimuth Time Altitude Azimuth
Meteor 2-3 Rocket 4.0 21:34:11 10° SSW 21:39:49 77° WNW 21:45:27 10° N
Cosmos 1939 Rocket 3.1 21:36:00 10° S 21:39:51 71° WSW 21:43:47 10° NNW
Cosmos 1461 3.1 21:36:18 10° SSW 21:40:58 77° SE 21:45:29 10° NE
Cosmos 2056 Rocket 3.7 21:36:45 10° S 21:41:44 51° ESE 21:46:42 10° NNE
Meteor 1-27 Rocket 3.9 21:37:05 10° N 21:42:38 57° ENE 21:48:05 10° SSE
Cosmos 1371 Rocket 4.0 21:38:25 10° SSW 21:43:42 71° ESE 21:48:58 10° NNE
Cosmos 1174 3.8 21:40:15 10° NNW 21:43:44 49° NE 21:46:46 10° SE
Cosmos 1844 Rocket 3.3 21:39:07 10° S 21:44:14 36° ESE 21:49:21 10° NE
COSMOS 2487 3.9 21:41:09 10° N 21:44:19 27° ENE 21:47:27 10° ESE
Cosmos 2082 Rocket 3.7 21:40:45 10° NNW 21:45:28 25° NE 21:50:08 10° E
SL-27 R/B 2.6 21:42:00 10° NNW 21:45:43 88° WSW 21:49:21 10° SSE
Coronas F rocket 1.5 21:46:35 10° SSW 21:49:14 71° W 21:51:54 10° N
COS B Rocket 3.6 21:48:39 10° N 21:52:57 58° E 21:56:55 10° SSE
YAOGAN 6 2.7 21:49:41 10° SSE 21:53:09 60° ENE 21:56:38 10° N
Cosmos 1408 3.7 21:50:31 10° SSE 21:53:39 27° E 21:56:46 10° NNE
Cosmos 2263 Rocket 3.3 21:53:33 10° SW 21:59:02 50° NW 22:04:33 10° NNE
SL-8 R/B 4.3 21:55:13 10° SW 21:59:34 34° SSE 22:03:55 10° E
Cosmos 1606 2.8 21:56:16 10° N 22:00:13 74° ENE 22:04:09 10° SSE
Cosmos 1975 Rocket 3.6 21:56:30 10° N 22:00:36 41° ENE 22:04:34 11° SE
deb Chang Zheng 4 3.7 21:56:12 10° NNE 22:00:37 85° WNW 22:05:02 10° SSW
MetOp-A 4.2 21:58:56 10° SSE 22:04:17 85° WSW 22:09:41 10° NNW
Okean 3 3.7 22:02:30 10° N 22:06:46 55° ENE 22:10:48 11° SSE
SL-08 RB Rocket 4.1 22:03:06 10° SE 22:07:31 52° ENE 22:12:02 10° N
CENTAUR R/B 4.0 22:01:27 10° NW 22:08:43 44° WSW 22:16:24 10° S
Cosmos 1242 Rocket 3.5 22:05:32 10° N 22:08:53 34° ENE 22:11:41 13° SE
Cosmos 2154 Rocket 4.0 22:05:39 10° S 22:11:48 69° E 22:17:59 10° NNE
Cosmos 1892 4.0 22:08:13 10° SSW 22:11:53 43° WNW 22:15:36 10° N
Cosmos 1908 Rocket 3.6 22:09:48 10° S 22:14:10 68° E 22:18:35 10° NNE
USA 229 DEB 4.5 22:09:10 10° NW 22:16:01 49° NE 22:22:55 10° ESE
USA 245 2.9 22:13:16 12° SSE 22:16:06 86° ENE 22:19:59 10° NNW
USA 229 4.5 22:09:16 10° NW 22:16:07 48° NE 22:23:00 10° ESE
NOAA 11 4.3 22:10:43 10° SSE 22:16:11 75° ENE 22:21:42 10° NNW
CZ-4 SHROUD 3.9 22:13:56 10° S 22:16:58 52° W 22:20:02 10° NNW
Cosmos 1378 Rocket 3.5 22:13:32 10° N 22:17:53 89° WSW 22:22:12 10° S
Cosmos 1733 Rocket 4.0 22:15:56 10° SSW 22:20:14 51° WNW 22:24:32 10° N
ERBS 4.4 22:18:12 10° W 22:20:47 20° SW 22:23:22 10° S
Cosmos 1624 Rocket 4.3 22:15:59 10° SSW 22:21:15 73° WNW 22:26:36 10° NNE
NOSS 2-2 (D) 3.6 22:17:08 10° SW 22:21:21 77° SE 22:26:28 10° NE
Envisat 4.2 22:17:02 10° SSW 22:21:46 39° W 22:26:32 10° NNW
H-2A R/B 2.6 22:17:21 13° SE 22:21:58 48° ENE 22:27:04 10° N
NOSS 2-2 (C) 3.8 22:31:48 10° SW 22:36:02 83° NW 22:41:15 10° NE
SPOT 1/Viking Rocket 3.9 22:31:48 10° S 22:36:57 66° WSW 22:42:11 10° NNW
Cosmos 407 Rocket 4.5 22:32:06 10° NW 22:37:04 44° WSW 22:42:03 10° S
Cosmos 1238 Rocket 2.8 22:34:39 10° NNW 22:37:37 53° W 22:40:29 13° S
Cosmos 489 Rocket 4.5 22:32:13 10° NNW 22:38:28 89° WSW 22:43:34 16° SSE
Landsat 7 3.8 22:39:28 17° SSE 22:43:12 81° ENE 22:48:00 10° NNW
SPOT 5 4.5 22:39:35 10° SSW 22:44:22 35° W 22:49:18 10° NNW
H-2A R/B 4.4 22:41:26 10° SW 22:44:38 20° W 22:47:49 10° NW
Cosmos 1452 Rocket 3.5 22:39:45 10° SSW 22:45:00 77° ESE 22:50:18 10° NNE
Cosmos 2366 rocket 4.5 22:40:48 16° SSE 22:45:31 45° E 22:51:30 10° NNE
Cosmos 2084 3.9 22:45:10 17° S 22:47:30 31° ESE 22:50:57 10° ENE
ASTEX 1 4.5 22:45:15 10° NNE 22:49:31 28° E 22:51:57 19° SE
Cosmos 1862 3.9 22:45:52 10° SSW 22:49:53 60° WNW 22:53:57 10° N
Cosmos 614 Rocket 4.0 22:47:45 10° NNW 22:52:53 75° ENE 22:56:16 21° SSE
Cosmos 1140 Rocket 3.5 22:48:49 10° NNW 22:53:58 75° WSW 22:57:38 19° SSE
NOSS 2-2 (E) 4.5 22:51:03 10° WSW 22:55:22 59° NW 23:00:44 10° NE
Spot 4 4.1 22:52:37 21° SE 22:55:48 60° ENE 23:00:36 10° N
Terra 1.8 22:55:45 21° SSE 22:58:58 81° ENE 23:03:45 10° NNW
DMSP B5D2-2 4.3 22:56:22 10° NNE 23:01:28 53° E 23:04:55 20° S
DELTA 2 DEB (DPAF) 4.3 22:58:20 19° S 23:01:30 70° WSW 23:06:00 10° NNW
Okean 2 Rocket 3.1 22:57:25 12° SSW 23:01:35 80° WNW 23:06:02 10° N
ATLAS 5 CENTAUR R/B 4.3 23:00:22 10° WNW 23:04:37 20° WSW 23:09:02 10° SSW
ARGOS 4.0 23:01:36 11° S 23:06:30 44° W 23:11:38 10° NNW
Cosmos 2218 Rocket 4.0 23:02:10 15° S 23:07:30 73° E 23:13:54 10° NNE
CZ-4C R/B 3.7 23:06:05 21° S 23:08:29 57° WSW 23:12:30 10° NNW
CZ-4B R/B 4.0 23:03:32 10° N 23:08:31 59° WNW 23:13:19 10° SSW
Cosmos 1825 3.4 23:05:07 10° SSW 23:08:44 40° WNW 23:12:23 10° N
Cosmos 1812 3.2 23:09:56 10° N 23:13:43 48° ENE 23:15:14 30° SE
Cosmos 1184 Rocket 3.9 23:10:45 11° SSW 23:13:47 43° WNW 23:17:02 10° N
Intercosmos 25 3.5 23:11:19 14° SSW 23:14:23 57° W 23:17:31 10° N
Cosmos 2278 Rocket 2.2 23:08:52 10° SSW 23:14:33 86° ESE 23:20:17 10° NNE
Cosmos 1850 Rocket 4.2 23:09:24 10° NNW 23:14:42 68° WSW 23:18:00 23° S
Cosmos 1844 4.1 23:11:24 10° SW 23:17:08 67° WNW 23:22:58 10° NNE
Cosmos 1833 Rocket 2.7 23:11:43 10° NNW 23:17:21 74° ENE 23:20:41 25° SE
Gbstr 26 Del rocket 3.3 23:13:59 10° WNW 23:19:07 71° N 23:22:48 14° E
COSMOS 2487 4.2 23:16:49 10° NW 23:19:52 26° WSW 23:21:53 16° SSW
Cosmos 1727 Rocket 3.9 23:14:39 10° N 23:20:53 88° E 23:24:55 23° S
USA 234 3.2 23:14:27 10° ENE 23:20:55 60° SE 23:27:22 10° SW
Cosmos 1844 Rocket 3.9 23:22:39 10° SW 23:28:03 44° NW 23:33:28 10° NNE
Cosmos 2082 Rocket 2.2 23:24:27 10° NNW 23:30:11 76° WSW 23:33:18 28° SSE
Timation 2 Rocket 4.4 23:25:59 10° NW 23:31:44 48° WSW 23:35:17 22° S
IGS 5A 4.1 23:30:58 25° SSW 23:33:08 50° W 23:37:13 10° NNW
NOSS 1 (D) 4.5 23:30:10 10° NW 23:33:21 85° SW 23:33:50 59° SSE
SL-8 R/B 3.6 23:36:57 10° WSW 23:41:46 74° S 23:46:35 10° E
Cosmos 2297 3.6 23:40:40 18° SSW 23:44:59 79° ESE 23:50:45 10° NNE
APEX 3.5 23:43:51 25° SSW 23:46:15 89° SE 23:51:31 10° NNE
CZ-4B R/B 3.3 23:46:12 16° E 23:46:46 17° ENE 23:48:55 10° NNE
Okean 1 3.3 23:44:45 10° NNW 23:48:50 81° W 23:50:10 41° S
Cosmos 1536 Rocket 4.4 23:46:54 10° NNW 23:51:11 46° W 23:53:22 25° SSW
